[[{"header":{"parameterUnit":"m.s-1","parameterCategory":2,"la1":30.2991,"la2":30.254,"lo1":-89.0895,"lo2":-89.0444,"dy":0.0017,"dx":0.0017,"nx":28,"ny":28,"refTime":"2024-04-13T09:00:00:Z","depth":"0","parameterNumber":2,"parameterNumberName":"U-component_of_CURRENTS"},"data":[0,0,0,0,0,0,0,0,0,0,0,0,0,0,0,0,0,0,0,0,0,0,0,0,0,0,0,0,0,0,0,0,0,0,0,0,0,0,0,0,0,0,0,0,0,0,0,0,0,0,0,0,0,0,0,0,0,0,-0.276,-0.2764,0,-0.3028,-0.303,-0.3032,-0.3073,-0.3072,-0.3071,-0.307,-0.2974,-0.2972,-0.2971,0,0,0,0,0,0,0,0,0,0,0,0,0,-0.2435,-0.2439,-0.276,-0.2764,-0.2769,-0.3027,-0.303,-0.3032,-0.3074,-0.3072,-0.3071,-0.3069,-0.2974,-0.2972,-0.2971,0,0,0,0,0,0,0,0,0,0,0,0,0,-0.2615,-0.244,-0.2759,-0.2829,-0.2839,-0.3027,-0.303,-0.3033,-0.3074,-0.3072,-0.307,-0.3068,-0.2975,-0.2973,-0.2971,-0.2996,0,0,-0.2964,-0.2963,0,0,0,0,0,0,0,0,-0.2605,-0.2625,-0.2815,-0.2825,-0.2836,-0.3026,-0.2882,-0.3007,-0.3074,-0.2972,-0.307,-0.3067,-0.2966,-0.2965,-0.3008,-0.2992,-0.2988,-0.2964,-0.2963,-0.2962,-0.2961,0,0,0,0,0,0,0,-0.2592,-0.2615,-0.2853,-0.282,-0.2833,-0.2901,-0.2921,-0.2907,-0.296,-0.2981,-0.2988,-0.3037,-0.2968,-0.301,-0.3005,-0.2986,-0.2964,-0.2962,-0.2961,-0.296,-0.3065,-0.3069,0,0,0,0,0,0,-0.2578,-0.2603,-0.2845,-0.2863,-0.2727,-0.2908,-0.2931,-0.2957,-0.2969,-0.2976,-0.3039,-0.3038,-0.3014,-0.3007,-0.3001,-0.3038,-0.2962,-0.296,-0.2959,-0.3061,-0.3066,-0.307,0,0,0,0,0,0,-0.257,-0.2596,-0.2835,-0.275,-0.2786,-0.2916,-0.2945,-0.2964,-0.3002,-0.3019,-0.3015,-0.3059,-0.3013,-0.3004,-0.3022,-0.3033,-0.2959,-0.2957,-0.3056,-0.3063,-0.3068,-0.3106,0,0,0,0,0,0,-0.2559,-0.2591,-0.259,-0.2748,-0.2791,-0.2942,-0.2949,-0.2971,-0.3042,-0.3044,-0.3035,-0.3026,-0.3011,-0.3026,-0.302,-0.3029,-0.2956,-0.3051,-0.3059,-0.3066,-0.3099,-0.3112,-0.3123,0,0,0,0,0,-0.2546,-0.2572,-0.2588,-0.2618,-0.279,-0.2945,-0.2972,-0.305,-0.3045,-0.3072,-0.3087,-0.3026,-0.307,-0.3028,-0.302,-0.3028,-0.3048,-0.3057,-0.3066,-0.3094,-0.311,-0.3123,0,0,0,0,0,0,-0.2447,-0.2585,-0.2604,-0.2672,-0.2793,-0.2956,-0.3004,-0.3051,-0.3094,-0.3082,-0.3066,-0.3061,-0.31,-0.3072,-0.3026,-0.3094,-0.3052,-0.306,-0.3077,-0.3091,-0.3103,-0.3057,-0.2954,0,0,0,0,0,-0.2423,-0.2461,-0.2618,-0.2669,-0.2731,-0.2859,-0.2925,-0.2988,-0.3065,-0.3084,-0.3092,-0.3105,-0.3139,-0.3116,-0.3153,-0.3154,-0.3091,-0.3167,-0.3178,-0.3188,-0.3156,-0.3075,-0.3073,-0.31,-0.31,-0.31,0,0,-0.2402,-0.2484,-0.2505,-0.2649,-0.2745,-0.2869,-0.289,-0.3007,-0.3083,-0.3059,-0.3131,-0.3155,-0.3165,-0.3209,-0.3217,-0.3166,-0.3165,-0.3199,-0.3206,-0.3168,-0.3083,-0.3079,-0.3075,-0.3106,-0.3105,-0.3104,0,0,-0.2442,-0.2452,-0.253,-0.2627,-0.2785,-0.2865,-0.2895,-0.3056,-0.3085,-0.3169,-0.3194,-0.3212,-0.3255,-0.3264,-0.3271,-0.3361,-0.326,-0.339,-0.3358,-0.3282,-0.3276,-0.3269,-0.3231,-0.3221,-0.3355,-0.3355,-0.3355,0,-0.2417,-0.2528,-0.2579,-0.2705,-0.2783,-0.2863,-0.2983,-0.3046,-0.3185,-0.3174,-0.3189,-0.326,-0.3276,-0.3291,-0.3354,-0.3375,-0.3328,-0.3289,-0.3286,-0.3278,-0.3271,-0.3233,-0.322,-0.3358,-0.3358,-0.3357,-0.3357,0,-0.2544,-0.2631,-0.269,-0.2845,-0.2924,-0.3035,-0.314,-0.318,-0.3205,-0.3242,-0.3265,-0.3305,-0.3311,-0.3356,-0.3383,-0.3363,-0.3352,-0.3332,-0.3222,-0.3268,-0.3229,-0.3215,-0.3362,-0.3361,-0.336,-0.336,0,0,-0.2493,-0.2733,-0.275,-0.2827,-0.2997,-0.3072,-0.3157,-0.3229,-0.3213,-0.3289,-0.3263,-0.3355,-0.3317,-0.3329,-0.3354,-0.3301,-0.326,-0.3294,-0.3289,-0.3209,-0.3106,-0.3048,-0.3028,-0.322,-0.3217,-0.3215,-0.3113,0,-0.2581,-0.2812,-0.2895,-0.3058,-0.3175,-0.3217,-0.3266,-0.3305,-0.3303,-0.3286,-0.3266,-0.3273,-0.3322,-0.3313,-0.3274,-0.3282,-0.322,-0.3291,-0.3114,-0.311,-0.3009,-0.3007,-0.2878,-0.277,-0.3099,-0.3097,-0.3095,0,-0.268,-0.2811,-0.3007,-0.313,-0.317,-0.3245,-0.324,-0.3301,-0.3264,-0.3243,-0.3201,-0.3191,-0.3176,-0.3194,-0.313,-0.317,-0.3137,-0.312,-0.3114,-0.3018,-0.3023,-0.2774,-0.2731,-0.2709,-0.3073,-0.3075,-0.3077,0,-0.263,-0.2862,-0.2993,-0.3057,-0.3221,-0.3233,-0.3274,-0.326,-0.3232,-0.3195,-0.3142,-0.311,-0.309,-0.3034,-0.3043,-0.3065,-0.2948,-0.2959,-0.2864,-0.2862,-0.2692,-0.2678,-0.2549,-0.2855,-0.2855,-0.2855,-0.2855,0,-0.2695,-0.2778,-0.2967,-0.3045,-0.3084,-0.3191,-0.3164,-0.3186,-0.3145,-0.3074,-0.3099,-0.3041,-0.3042,-0.2992,-0.2986,-0.2888,-0.2886,-0.2837,-0.2808,-0.2715,-0.2705,-0.2629,-0.2681,-0.2851,-0.2852,-0.2853,-0.2854,0,-0.2635,-0.2794,-0.2915,-0.3065,-0.3091,-0.3097,-0.3115,-0.3058,-0.3062,-0.2976,-0.296,-0.2961,-0.2911,-0.2901,-0.2831,-0.2802,-0.2673,-0.2686,-0.2606,-0.2569,-0.2445,-0.2506,-0.2361,-0.2294,-0.2534,-0.2531,-0.2529,0,-0.2633,-0.2715,-0.2877,-0.29,-0.2965,-0.2985,-0.2963,-0.3,-0.2932,-0.2916,-0.285,-0.2824,-0.276,-0.2668,-0.2612,-0.2529,-0.2562,-0.237,-0.2377,-0.2389,-0.2437,-0.2499,-0.2459,-0.2197,-0.2192,-0.2188,-0.2185,0,-0.2573,-0.2626,-0.2708,-0.2775,-0.2789,-0.2777,-0.2765,-0.2709,-0.2716,-0.2682,-0.2627,-0.2597,-0.254,-0.2417,-0.2347,-0.2288,-0.2311,-0.2289,-0.2285,-0.2137,-0.2205,-0.2143,-0.2366,-0.2152,-0.2155,-0.2158,-0.216,-0.2161,-0.2443,-0.2462,-0.2563,-0.2589,-0.2595,-0.2528,-0.2437,-0.2433,-0.2353,-0.2262,-0.2369,-0.2305,-0.2267,-0.2144,-0.2096,-0.1962,-0.2058,-0.1891,-0.196,-0.202,-0.1951,-0.2127,-0.1896,-0.1898,-0.1899,-0.1901,-0.1902,0,-0.2284,-0.2334,-0.2359,-0.2373,-0.2281,-0.2353,-0.2246,-0.2119,-0.1995,-0.2041,-0.2,-0.1975,-0.1862,-0.186,-0.1763,-0.167,-0.1642,-0.1628,-0.167,-0.1639,-0.1741,-0.172,-0.1457,-0.1457,-0.1457,-0.1457,-0.1457,-0.1457,-0.2204,-0.2198,-0.2228,-0.2058,-0.2027,-0.1818,-0.1714,-0.1612,-0.1577,-0.1516,-0.1548,-0.1572,-0.1638,-0.1785,-0.167,-0.1572,-0.1552,-0.1483,-0.1544,-0.1624,-0.1654,-0.1683,-0.167,-0.1402,-0.1402,-0.1343,-0.1343,-0.1343]},{"header":{"parameterUnit":"m.s-1","parameterCategory":2,"la1":30.2991,"la2":30.254,"lo1":-89.0895,"lo2":-89.0444,"dy":0.0017,"dx":0.0017,"nx":28,"ny":28,"refTime":"2024-04-13T09:00:00:Z","depth":"0","parameterNumber":3,"parameterNumberName":"V-component_of_CURRENTS"},"data":[0,0,0,0,0,0,0,0,0,0,0,0,0,0,0,0,0,0,0,0,0,0,0,0,0,0,0,0,0,0,0,0,0,0,0,0,0,0,0,0,0,0,0,0,0,0,0,0,0,0,0,0,0,0,0,0,0,0,0.0055,0.0057,0,0.021,0.0212,0.0213,0.032,0.0321,0.0322,0.0322,0.0458,0.0461,0.0464,0,0,0,0,0,0,0,0,0,0,0,0,0,-0.0046,-0.0045,0.0055,0.0057,0.0059,0.021,0.0212,0.0214,0.032,0.0321,0.0322,0.0323,0.0457,0.0461,0.0464,0,0,0,0,0,0,0,0,0,0,0,0,0,0.0041,-0.0045,0.0054,0.0131,0.0139,0.0209,0.0212,0.0214,0.0319,0.0321,0.0322,0.0323,0.0456,0.046,0.0465,0.0464,0,0,0.0477,0.0479,0,0,0,0,0,0,0,0,0.0036,0.0044,0.0117,0.0126,0.0135,0.0248,0.0226,0.0297,0.0319,0.025,0.0322,0.0324,0.0386,0.0396,0.0421,0.047,0.0476,0.0478,0.048,0.0482,0.0483,0,0,0,0,0,0,0,0.003,0.0039,0.0115,0.0119,0.013,0.0193,0.0205,0.0241,0.0307,0.0256,0.0264,0.0283,0.0391,0.0417,0.0425,0.0478,0.0478,0.0481,0.0484,0.0486,0.0579,0.0579,0,0,0,0,0,0,0.0005,0.0032,0.011,0.012,0.0089,0.0193,0.0207,0.0209,0.0308,0.0325,0.0282,0.0287,0.0409,0.042,0.043,0.0435,0.0482,0.0486,0.0488,0.0579,0.0579,0.0579,0,0,0,0,0,0,0.0002,0.001,0.0104,0.0082,0.0098,0.0193,0.0195,0.0212,0.0239,0.0328,0.0344,0.0291,0.041,0.0424,0.0465,0.0441,0.0488,0.0492,0.0579,0.0579,0.0579,0.0445,0,0,0,0,0,0,-0.0002,0.0008,-0.0004,0.0079,0.0099,0.0125,0.0194,0.0214,0.0248,0.0257,0.034,0.0355,0.0412,0.0459,0.0469,0.0448,0.0495,0.0579,0.0579,0.0579,0.045,0.044,0.0433,0,0,0,0,0,-0.0006,-0.0027,-0.0006,0.0004,0.008,0.0124,0.0138,0.0211,0.0247,0.0243,0.0314,0.0352,0.0466,0.0462,0.0474,0.0453,0.0579,0.0579,0.0579,0.0453,0.0442,0.0433,0,0,0,0,0,0,-0.0068,-0.0015,0.0009,0.0007,0.0051,0.0142,0.015,0.0198,0.0251,0.0262,0.0348,0.0366,0.0399,0.0446,0.0438,0.0485,0.053,0.0533,0.043,0.0421,0.0412,0.038,0.0498,0,0,0,0,0,-0.0092,-0.0099,-0.0033,-0.0036,-0.0021,0.0059,0.0086,0.0132,0.0195,0.0221,0.0281,0.035,0.0408,0.0428,0.0487,0.0497,0.054,0.0497,0.0488,0.048,0.0466,0.0508,0.0501,0.0579,0.0579,0.0579,0,0,-0.0111,-0.0087,-0.0087,-0.0051,-0.0009,-0.0008,0.0078,0.0106,0.0117,0.0224,0.0249,0.0322,0.0409,0.0436,0.0453,0.0468,0.0483,0.048,0.0473,0.0463,0.0507,0.0499,0.0492,0.0579,0.0579,0.0579,0,0,-0.017,-0.0141,-0.0173,-0.0151,-0.0107,-0.0059,-0.006,0.0014,0.0057,0.0089,0.0181,0.0232,0.0307,0.0366,0.0407,0.0383,0.0444,0.0406,0.0323,0.0363,0.0356,0.0351,0.0394,0.0394,0.0391,0.0391,0.0391,0,-0.0198,-0.0231,-0.0174,-0.0202,-0.0188,-0.0095,-0.0121,-0.007,0.0011,0.0044,0.0076,0.0206,0.0272,0.032,0.0318,0.0358,0.0397,0.0348,0.0348,0.0344,0.034,0.0387,0.0388,0.0385,0.0385,0.0386,0.0387,0,-0.0278,-0.0308,-0.0323,-0.0333,-0.0312,-0.0317,-0.0243,-0.0209,-0.0147,-0.009,-0.0025,0.0072,0.0149,0.0178,0.0239,0.0254,0.0296,0.0336,0.0362,0.0323,0.0376,0.0379,0.0375,0.0378,0.038,0.0381,0,0,-0.0327,-0.0376,-0.0381,-0.0416,-0.0382,-0.0373,-0.0349,-0.0299,-0.0269,-0.0201,-0.0168,-0.0074,-0.001,0.0041,0.0127,0.0155,0.0166,0.0221,0.0226,0.0243,0.0257,0.0324,0.0335,0.0204,0.0204,0.0204,0.0302,0,-0.0408,-0.0512,-0.0493,-0.0565,-0.0607,-0.0518,-0.0497,-0.0432,-0.0354,-0.0299,-0.0196,-0.0132,-0.0064,-0.0021,0.0013,0.0149,0.017,0.0136,0.0311,0.0316,0.0362,0.0339,0.0395,0.0491,0.0306,0.0306,0.0307,0,-0.0493,-0.0552,-0.0658,-0.0686,-0.0687,-0.0701,-0.0635,-0.0604,-0.049,-0.0422,-0.0351,-0.0252,-0.0177,-0.0118,0.0033,0.0011,0.0108,0.0196,0.0203,0.0312,0.0389,0.0504,0.0505,0.0696,0.0313,0.0312,0.0312,0,-0.0577,-0.0658,-0.0754,-0.0769,-0.0781,-0.078,-0.0752,-0.0649,-0.0603,-0.0502,-0.0457,-0.035,-0.028,-0.0161,0.0028,0.0031,0.0197,0.023,0.0373,0.038,0.0486,0.0502,0.0675,0.0304,0.0304,0.0304,0.0303,0,-0.0683,-0.0749,-0.0805,-0.0862,-0.0921,-0.0875,-0.0879,-0.0815,-0.0714,-0.0672,-0.0538,-0.0475,-0.0289,-0.0155,-0.0005,0.0203,0.0173,0.0352,0.0406,0.0444,0.0454,0.0675,0.0761,0.0307,0.0307,0.0306,0.0305,0,-0.0779,-0.0822,-0.0933,-0.0976,-0.0984,-0.1021,-0.0975,-0.0953,-0.0843,-0.0782,-0.0754,-0.057,-0.0383,-0.0182,0.0038,0.0174,0.0491,0.0435,0.047,0.0525,0.0832,0.0908,0.112,0.1242,0.0602,0.0604,0.0606,0,-0.0838,-0.0921,-0.1031,-0.1086,-0.1118,-0.1145,-0.1139,-0.1038,-0.0991,-0.0831,-0.0802,-0.0612,-0.0448,-0.0092,0.0184,0.0461,0.0598,0.0658,0.0666,0.0853,0.0977,0.1015,0.1105,0.0759,0.0762,0.0764,0.0766,0,-0.0946,-0.0998,-0.1092,-0.1215,-0.1261,-0.1284,-0.126,-0.1235,-0.1092,-0.1004,-0.0844,-0.0704,-0.0337,0.003,0.0393,0.055,0.0822,0.0715,0.0905,0.1105,0.1163,0.1305,0.0692,0.0787,0.0785,0.0784,0.0783,0.0782,-0.1001,-0.1105,-0.1231,-0.1337,-0.1387,-0.1391,-0.1368,-0.1299,-0.121,-0.0995,-0.088,-0.0555,-0.0079,0.0462,0.0657,0.1088,0.1026,0.1203,0.1276,0.1294,0.1424,0.0854,0.1012,0.1011,0.101,0.101,0.1009,0,-0.107,-0.1197,-0.1323,-0.1437,-0.1491,-0.1476,-0.1418,-0.1334,-0.1213,-0.0939,-0.0734,-0.0091,0.0392,0.0857,0.1413,0.1641,0.169,0.1737,0.1812,0.1876,0.1378,0.1397,0.1651,0.1651,0.1651,0.1651,0.165,0.165,-0.1114,-0.1279,-0.1368,-0.1498,-0.1545,-0.1515,-0.1461,-0.1322,-0.1085,-0.0618,-0.0155,0.0227,0.0838,0.1617,0.2124,0.2157,0.2375,0.2334,0.2452,0.2119,0.2074,0.2032,0.2072,0.2463,0.2464,0.2932,0.2937,0.2941]}],[{"header":{"parameterUnit":"m.s-1","parameterCategory":2,"la1":30.2991,"la2":30.254,"lo1":-89.0895,"lo2":-89.0444,"dy":0.0017,"dx":0.0017,"nx":28,"ny":28,"refTime":"2024-04-13T09:00:00:Z","depth":"2","parameterNumber":2,"parameterNumberName":"U-component_of_CURRENTS"},"data":[0,0,0,0,0,0,0,0,0,0,0,0,0,0,0,0,0,0,0,0,0,0,0,0,0,0,0,0,0,0,0,0,0,0,0,0,0,0,0,0,0,0,0,0,0,0,0,0,0,0,0,0,0,0,0,0,0,0,-0.2194,-0.2194,0,-0.2196,-0.2195,-0.2195,-0.2158,-0.2158,-0.2157,-0.2156,-0.2175,-0.2176,-0.2178,0,0,0,0,0,0,0,0,0,0,0,0,0,-0.2109,-0.211,-0.2194,-0.2194,-0.2195,-0.2196,-0.2195,-0.2195,-0.2159,-0.2158,-0.2157,-0.2156,-0.2175,-0.2176,-0.2178,0,0,0,0,0,0,0,0,0,0,0,0,0,-0.2129,-0.2111,-0.2194,-0.2179,-0.2178,-0.2196,-0.2195,-0.2195,-0.2159,-0.2158,-0.2157,-0.2156,-0.2174,-0.2176,-0.2178,-0.221,0,0,-0.2183,-0.2184,0,0,0,0,0,0,0,0,-0.2128,-0.2132,-0.2181,-0.218,-0.2179,-0.2178,-0.2172,-0.2202,-0.2159,-0.2163,-0.2156,-0.2155,-0.2181,-0.2182,-0.218,-0.2211,-0.2211,-0.2183,-0.2184,-0.2185,-0.2186,0,0,0,0,0,0,0,-0.2126,-0.2131,-0.2191,-0.2181,-0.218,-0.2155,-0.2157,-0.2177,-0.2176,-0.2162,-0.216,-0.2166,-0.218,-0.2178,-0.218,-0.2212,-0.2183,-0.2185,-0.2186,-0.2187,-0.229,-0.2291,0,0,0,0,0,0,-0.2137,-0.213,-0.2192,-0.2192,-0.2154,-0.2158,-0.2159,-0.2177,-0.2175,-0.2174,-0.2167,-0.2164,-0.2176,-0.2178,-0.2181,-0.225,-0.2185,-0.2187,-0.2188,-0.2288,-0.229,-0.2292,0,0,0,0,0,0,-0.2135,-0.2143,-0.2191,-0.2162,-0.2167,-0.2161,-0.2181,-0.2178,-0.2183,-0.2179,-0.2177,-0.2176,-0.2175,-0.2178,-0.2206,-0.2249,-0.2187,-0.2189,-0.2286,-0.2289,-0.2291,-0.2369,0,0,0,0,0,0,-0.2133,-0.2142,-0.2151,-0.2164,-0.2169,-0.2214,-0.2182,-0.2179,-0.2189,-0.2186,-0.2186,-0.2186,-0.2175,-0.2204,-0.2208,-0.2251,-0.219,-0.2284,-0.2287,-0.229,-0.2364,-0.2374,-0.2382,0,0,0,0,0,-0.213,-0.2148,-0.2152,-0.2159,-0.2185,-0.2215,-0.2216,-0.2204,-0.2191,-0.2203,-0.22,-0.2186,-0.2227,-0.2207,-0.2211,-0.2255,-0.2282,-0.2286,-0.229,-0.236,-0.2372,-0.2382,0,0,0,0,0,0,-0.2107,-0.2147,-0.2151,-0.2178,-0.2202,-0.221,-0.2213,-0.2216,-0.2223,-0.2215,-0.2208,-0.2209,-0.2245,-0.2243,-0.2221,-0.2294,-0.2254,-0.2259,-0.2306,-0.2317,-0.2325,-0.2321,-0.2192,0,0,0,0,0,-0.2112,-0.2137,-0.2171,-0.219,-0.2204,-0.2214,-0.2221,-0.2223,-0.2234,-0.2234,-0.2241,-0.2249,-0.2266,-0.2284,-0.229,-0.2339,-0.2311,-0.2371,-0.238,-0.2387,-0.2387,-0.2385,-0.2393,-0.2305,-0.2305,-0.2305,0,0,-0.2105,-0.2131,-0.2142,-0.2188,-0.2198,-0.2236,-0.2215,-0.2236,-0.2272,-0.2239,-0.228,-0.2276,-0.2282,-0.2325,-0.2344,-0.2331,-0.2397,-0.2392,-0.2399,-0.2394,-0.2389,-0.2398,-0.2405,-0.2307,-0.2307,-0.2306,0,0,-0.2107,-0.2133,-0.2155,-0.2191,-0.2225,-0.2244,-0.226,-0.2287,-0.23,-0.2345,-0.2327,-0.2351,-0.2384,-0.2398,-0.2409,-0.2478,-0.2435,-0.2483,-0.2539,-0.2537,-0.2544,-0.255,-0.2518,-0.252,-0.2499,-0.2499,-0.2499,0,-0.2094,-0.2139,-0.2164,-0.2205,-0.2238,-0.2258,-0.2299,-0.2327,-0.2362,-0.2381,-0.2368,-0.2413,-0.2422,-0.2475,-0.2498,-0.25,-0.2472,-0.2498,-0.2548,-0.2553,-0.2557,-0.2523,-0.2525,-0.2503,-0.2503,-0.2502,-0.2502,0,-0.2121,-0.2164,-0.2182,-0.225,-0.2289,-0.2327,-0.2382,-0.2419,-0.244,-0.2462,-0.251,-0.2518,-0.254,-0.2561,-0.2553,-0.2602,-0.2561,-0.2549,-0.2517,-0.2571,-0.2531,-0.2532,-0.2509,-0.2508,-0.2506,-0.2505,0,0,-0.2081,-0.2181,-0.2189,-0.223,-0.232,-0.2351,-0.2429,-0.2496,-0.2531,-0.2572,-0.2609,-0.266,-0.2646,-0.2657,-0.2654,-0.2669,-0.2683,-0.2628,-0.2626,-0.2591,-0.2649,-0.256,-0.2551,-0.2672,-0.2673,-0.2674,-0.2606,0,-0.2094,-0.2168,-0.2227,-0.2308,-0.2354,-0.2423,-0.2495,-0.2559,-0.2597,-0.2638,-0.2664,-0.2689,-0.269,-0.2691,-0.2713,-0.268,-0.2687,-0.27,-0.2607,-0.2604,-0.2515,-0.255,-0.2359,-0.2278,-0.2605,-0.2605,-0.2605,0,-0.2101,-0.2158,-0.2229,-0.2346,-0.2372,-0.2429,-0.2529,-0.2593,-0.2667,-0.2694,-0.2728,-0.2727,-0.2763,-0.2742,-0.2736,-0.2737,-0.2702,-0.2679,-0.2676,-0.2564,-0.2516,-0.228,-0.2265,-0.2605,-0.2605,-0.2605,-0.2605,0,-0.2041,-0.2161,-0.2214,-0.2256,-0.2387,-0.2435,-0.2504,-0.2598,-0.2642,-0.2707,-0.2719,-0.2763,-0.2758,-0.2748,-0.2714,-0.2717,-0.2677,-0.2672,-0.2561,-0.2553,-0.2358,-0.2331,-0.2663,-0.2663,-0.2663,-0.2663,-0.2663,0,-0.203,-0.2076,-0.2189,-0.2216,-0.2297,-0.24,-0.247,-0.2547,-0.2627,-0.2659,-0.2723,-0.2733,-0.2756,-0.2737,-0.2713,-0.2628,-0.2676,-0.2566,-0.2535,-0.2379,-0.2356,-0.2616,-0.2611,-0.2661,-0.2661,-0.2662,-0.2662,0,-0.1949,-0.2025,-0.2088,-0.2216,-0.2262,-0.2309,-0.2441,-0.2481,-0.2572,-0.2607,-0.2621,-0.2693,-0.2669,-0.2671,-0.264,-0.26,-0.2547,-0.2505,-0.2308,-0.2255,-0.2421,-0.2421,-0.2369,-0.2365,-0.2362,-0.236,-0.2358,0,-0.1914,-0.1931,-0.2048,-0.2079,-0.2136,-0.2227,-0.2287,-0.2427,-0.2461,-0.2569,-0.2563,-0.2581,-0.2554,-0.2487,-0.2424,-0.2346,-0.2447,-0.2137,-0.2124,-0.2418,-0.2394,-0.2399,-0.2403,-0.1888,-0.1882,-0.1878,-0.1874,0,-0.1829,-0.1857,-0.1896,-0.1964,-0.2026,-0.2102,-0.2192,-0.2222,-0.2361,-0.2393,-0.2415,-0.2404,-0.2354,-0.2193,-0.2118,-0.2059,-0.2139,-0.2037,-0.2386,-0.2003,-0.1962,-0.194,-0.196,-0.1832,-0.1836,-0.1839,-0.1841,-0.1843,-0.174,-0.1739,-0.1774,-0.1825,-0.1894,-0.194,-0.1946,-0.2036,-0.2074,-0.2089,-0.2185,-0.2106,-0.2098,-0.187,-0.1775,-0.1705,-0.1855,-0.1779,-0.1795,-0.1815,-0.1782,-0.174,-0.1559,-0.1562,-0.1564,-0.1566,-0.1568,0,-0.1623,-0.1619,-0.1642,-0.1687,-0.1688,-0.1786,-0.1844,-0.1815,-0.1797,-0.1841,-0.1823,-0.1642,-0.153,-0.1531,-0.1346,-0.1315,-0.1314,-0.1269,-0.1267,-0.1309,-0.1346,-0.1292,-0.0937,-0.0935,-0.0933,-0.0932,0,0,-0.1557,-0.151,-0.1513,-0.1458,-0.1491,-0.1451,-0.1447,-0.1429,-0.1424,-0.1367,-0.1328,-0.1429,-0.1467,-0.1202,-0.114,-0.1001,-0.1144,-0.095,-0.1453,-0.149,-0.1525,-0.1633,-0.1595,0,0,0,0,0]},{"header":{"parameterUnit":"m.s-1","parameterCategory":2,"la1":30.2991,"la2":30.254,"lo1":-89.0895,"lo2":-89.0444,"dy":0.0017,"dx":0.0017,"nx":28,"ny":28,"refTime":"2024-04-13T09:00:00:Z","depth":"2","parameterNumber":3,"parameterNumberName":"V-component_of_CURRENTS"},"data":[0,0,0,0,0,0,0,0,0,0,0,0,0,0,0,0,0,0,0,0,0,0,0,0,0,0,0,0,0,0,0,0,0,0,0,0,0,0,0,0,0,0,0,0,0,0,0,0,0,0,0,0,0,0,0,0,0,0,-0.0098,-0.0097,0,-0.004,-0.0039,-0.0039,0.0006,0.0006,0.0007,0.0007,0.0101,0.0103,0.0105,0,0,0,0,0,0,0,0,0,0,0,0,0,-0.0133,-0.0133,-0.0098,-0.0097,-0.0096,-0.004,-0.0039,-0.0039,0.0006,0.0006,0.0007,0.0007,0.0101,0.0103,0.0105,0,0,0,0,0,0,0,0,0,0,0,0,0,-0.0101,-0.0133,-0.0098,-0.0067,-0.0064,-0.004,-0.0039,-0.0038,0.0006,0.0006,0.0007,0.0008,0.01,0.0103,0.0106,0.0111,0,0,0.0115,0.0117,0,0,0,0,0,0,0,0,-0.0103,-0.01,-0.0072,-0.0069,-0.0065,-0.0023,-0.0017,0.0014,0.0005,-0.0021,0.0007,0.0008,0.0063,0.0069,0.0077,0.0116,0.012,0.0116,0.0117,0.0119,0.012,0,0,0,0,0,0,0,-0.0105,-0.0102,-0.0075,-0.0072,-0.0067,-0.0043,-0.0039,-0.0011,0.0017,-0.0019,-0.0015,-0.0008,0.0065,0.0074,0.008,0.0121,0.0115,0.0118,0.012,0.0121,0.0182,0.0182,0,0,0,0,0,0,-0.0114,-0.0104,-0.0077,-0.0073,-0.0082,-0.0044,-0.0038,-0.0038,0.0016,0.0024,-0.0009,-0.0007,0.0068,0.0076,0.0083,0.0095,0.0119,0.0122,0.0123,0.0182,0.0182,0.0182,0,0,0,0,0,0,-0.0115,-0.0113,-0.0079,-0.0087,-0.0081,-0.0044,-0.0044,-0.0037,-0.0026,0.0023,0.0032,-0.0004,0.0069,0.0079,0.0106,0.0099,0.0123,0.0126,0.0183,0.0182,0.0182,0.0118,0,0,0,0,0,0,-0.0117,-0.0114,-0.0122,-0.0088,-0.0081,-0.0074,-0.0044,-0.0036,-0.0022,-0.0019,0.003,0.0039,0.007,0.0101,0.0109,0.0104,0.0128,0.0183,0.0183,0.0182,0.012,0.0115,0.0111,0,0,0,0,0,-0.0118,-0.0136,-0.0123,-0.0119,-0.0092,-0.0075,-0.007,-0.0041,-0.0023,-0.0026,0.001,0.0038,0.0104,0.0103,0.0113,0.0108,0.0183,0.0183,0.0182,0.0122,0.0116,0.0111,0,0,0,0,0,0,-0.0157,-0.0132,-0.0117,-0.0126,-0.0104,-0.0068,-0.0071,-0.0045,-0.002,-0.0016,0.0034,0.0046,0.0064,0.0096,0.0094,0.0125,0.0148,0.0149,0.0099,0.0094,0.009,0.0079,0.0131,0,0,0,0,0,-0.0169,-0.0176,-0.0143,-0.0151,-0.0144,-0.0107,-0.0097,-0.0077,-0.0047,-0.0035,0.0002,0.004,0.0069,0.0089,0.0115,0.0134,0.0173,0.0138,0.0133,0.0129,0.0127,0.0183,0.0183,0.018,0.018,0.018,0,0,-0.0184,-0.0174,-0.0176,-0.016,-0.0142,-0.0147,-0.01,-0.0093,-0.009,-0.0029,-0.0016,0.0022,0.0068,0.0086,0.0098,0.0114,0.0149,0.0129,0.0125,0.0125,0.0182,0.0183,0.0183,0.018,0.018,0.018,0,0,-0.0228,-0.0211,-0.0234,-0.0222,-0.0203,-0.018,-0.018,-0.0144,-0.0121,-0.0103,-0.0058,-0.002,0.0019,0.0058,0.0081,0.007,0.0118,0.0075,0.0049,0.0103,0.0103,0.0105,0.0147,0.0153,0.0078,0.0078,0.0078,0,-0.0248,-0.0273,-0.0237,-0.0257,-0.0256,-0.02,-0.0223,-0.0193,-0.0151,-0.0128,-0.011,-0.0034,0.0007,0.0043,0.004,0.0059,0.0093,0.0065,0.0097,0.0099,0.0101,0.0145,0.0152,0.0075,0.0075,0.0076,0.0076,0,-0.0308,-0.0327,-0.034,-0.0348,-0.0339,-0.035,-0.0305,-0.0284,-0.0247,-0.0208,-0.0161,-0.0098,-0.0049,-0.003,0.0001,0.0037,0.0056,0.0079,0.0108,0.0097,0.0144,0.0153,0.007,0.0072,0.0072,0.0073,0,0,-0.0353,-0.038,-0.0384,-0.0407,-0.0389,-0.039,-0.0377,-0.0345,-0.0326,-0.0271,-0.024,-0.0177,-0.0125,-0.0095,-0.0041,0.0011,0.0057,0.0046,0.0051,0.0084,0.0167,0.0207,0.0221,0.0084,0.0085,0.0086,0.019,0,-0.0412,-0.0482,-0.0467,-0.0519,-0.0549,-0.0494,-0.0486,-0.0442,-0.0384,-0.0337,-0.0248,-0.0205,-0.0155,-0.0127,-0.0068,0.0027,0.0077,0.0026,0.0177,0.0181,0.0215,0.0231,0.021,0.0303,0.0199,0.02,0.0201,0,-0.0475,-0.0516,-0.0586,-0.0609,-0.0613,-0.0626,-0.0589,-0.0572,-0.048,-0.0428,-0.0353,-0.028,-0.0194,-0.0152,0.0004,-0.0032,0.0056,0.0132,0.0138,0.0205,0.0238,0.03,0.0323,0.0216,0.0215,0.0214,0.0213,0,-0.0538,-0.0594,-0.0657,-0.0668,-0.0681,-0.0685,-0.0676,-0.0602,-0.0575,-0.048,-0.0442,-0.0328,-0.0267,-0.0143,0.0016,0.001,0.019,0.0205,0.0324,0.0327,0.0355,0.0359,0.031,0.031,0.0309,0.0309,0.0309,0,-0.0611,-0.0659,-0.0695,-0.0731,-0.0788,-0.0756,-0.0768,-0.0728,-0.0654,-0.0619,-0.0497,-0.0436,-0.0261,-0.0133,0.0003,0.0194,0.0183,0.0325,0.0362,0.0331,0.0332,0.0292,0.0289,0.0313,0.0312,0.0311,0.0311,0,-0.0674,-0.07,-0.0776,-0.0812,-0.0826,-0.0861,-0.0852,-0.0843,-0.0759,-0.0706,-0.0681,-0.0516,-0.0338,-0.0155,0.0059,0.018,0.0354,0.0421,0.0369,0.0398,0.0456,0.0448,0.0564,0.0567,0.0569,0.057,0.0572,0,-0.0716,-0.0765,-0.0845,-0.0893,-0.0917,-0.0954,-0.097,-0.0911,-0.0885,-0.0745,-0.0723,-0.0543,-0.039,-0.006,0.0176,0.0425,0.0414,0.0541,0.0534,0.0461,0.0485,0.0474,0.0463,0.0541,0.0542,0.0543,0.0544,0,-0.079,-0.0815,-0.0876,-0.0982,-0.1031,-0.1075,-0.1084,-0.1079,-0.0981,-0.0896,-0.075,-0.0615,-0.0291,0.0001,0.0315,0.0448,0.05,0.0568,0.0521,0.0478,0.0448,0.0468,0.0457,0.0552,0.0551,0.055,0.055,0.055,-0.0829,-0.089,-0.0969,-0.1064,-0.1127,-0.1171,-0.1186,-0.1148,-0.1087,-0.0916,-0.0779,-0.0516,-0.0258,0.022,0.0429,0.0614,0.0604,0.0656,0.0649,0.0643,0.062,0.0595,0.0721,0.0722,0.0722,0.0722,0.0722,0,-0.0876,-0.0945,-0.1043,-0.1148,-0.1221,-0.1235,-0.1241,-0.1203,-0.1115,-0.0905,-0.0708,-0.0366,-0.0022,0.0237,0.0555,0.0737,0.0701,0.0747,0.0675,0.0666,0.0659,0.0633,0.074,0.0741,0.0742,0.0742,0,0,-0.0901,-0.1003,-0.1059,-0.12,-0.1268,-0.132,-0.1314,-0.1226,-0.1073,-0.0842,-0.0608,-0.0305,0.0012,0.0247,0.0461,0.0618,0.0586,0.0617,0.0583,0.0463,0.0454,0.0588,0.0538,0,0,0,0,0]}],[{"header":{"parameterUnit":"m.s-1","parameterCategory":2,"la1":30.2991,"la2":30.254,"lo1":-89.0895,"lo2":-89.0444,"dy":0.0017,"dx":0.0017,"nx":28,"ny":28,"refTime":"2024-04-13T09:00:00:Z","depth":"4","parameterNumber":2,"parameterNumberName":"U-component_of_CURRENTS"},"data":[0,0,0,0,0,0,0,0,0,0,0,0,0,0,0,0,0,0,0,0,0,0,0,0,0,0,0,0,0,0,0,0,0,0,0,0,0,0,0,0,0,0,0,0,0,0,0,0,0,0,0,0,0,0,0,0,0,0,-0.1517,-0.1517,0,-0.1547,-0.1547,-0.1548,-0.1573,-0.1574,-0.1574,-0.1574,-0.1659,-0.1661,-0.1663,0,0,0,0,0,0,0,0,0,0,0,0,0,-0.1444,-0.1446,-0.1517,-0.1517,-0.1517,-0.1547,-0.1547,-0.1548,-0.1573,-0.1574,-0.1574,-0.1574,-0.1658,-0.1661,-0.1663,0,0,0,0,0,0,0,0,0,0,0,0,0,-0.1477,-0.1446,-0.1517,-0.1533,-0.1534,-0.1547,-0.1547,-0.1548,-0.1573,-0.1574,-0.1574,-0.1574,-0.1657,-0.1661,-0.1664,-0.1678,0,0,-0.1673,-0.1675,0,0,0,0,0,0,0,0,-0.1475,-0.1479,-0.153,-0.1532,-0.1533,-0.1555,-0.1553,-0.1594,-0.1573,-0.156,-0.1574,-0.1574,-0.1628,-0.1634,-0.164,-0.1682,-0.1686,-0.1674,-0.1676,-0.1677,-0.1678,0,0,0,0,0,0,0,-0.1473,-0.1478,-0.153,-0.153,-0.1532,-0.1525,-0.1531,-0.156,-0.1595,-0.1561,-0.1563,-0.1564,-0.163,-0.1637,-0.1643,-0.1687,-0.1674,-0.1676,-0.1678,-0.168,-0.1819,-0.182,0,0,0,0,0,0,-0.1468,-0.1476,-0.1529,-0.1531,-0.1502,-0.1526,-0.1532,-0.1549,-0.1593,-0.1599,-0.1564,-0.1565,-0.1631,-0.1639,-0.1646,-0.1742,-0.1677,-0.168,-0.1682,-0.1817,-0.1819,-0.1821,0,0,0,0,0,0,-0.1467,-0.1473,-0.1528,-0.1502,-0.1508,-0.1527,-0.1546,-0.155,-0.1582,-0.1594,-0.1602,-0.1595,-0.1632,-0.1641,-0.17,-0.1743,-0.1681,-0.1684,-0.1815,-0.1818,-0.182,-0.1886,0,0,0,0,0,0,-0.1465,-0.1473,-0.1497,-0.1502,-0.151,-0.1555,-0.1546,-0.155,-0.158,-0.1583,-0.1623,-0.163,-0.1633,-0.1695,-0.1703,-0.1746,-0.1687,-0.1813,-0.1816,-0.1819,-0.1882,-0.1891,-0.1899,0,0,0,0,0,-0.1462,-0.1486,-0.1499,-0.1505,-0.1538,-0.1556,-0.156,-0.1574,-0.1582,-0.1604,-0.1634,-0.163,-0.1722,-0.1699,-0.1708,-0.1753,-0.1811,-0.1815,-0.1819,-0.1878,-0.1889,-0.1899,0,0,0,0,0,0,-0.1461,-0.1491,-0.1505,-0.1537,-0.1556,-0.156,-0.158,-0.1591,-0.1631,-0.1642,-0.1655,-0.1665,-0.1728,-0.1733,-0.1708,-0.1802,-0.1765,-0.1771,-0.1807,-0.1818,-0.1826,-0.1818,-0.1689,0,0,0,0,0,-0.1473,-0.1508,-0.1525,-0.1554,-0.1565,-0.158,-0.1594,-0.1605,-0.1631,-0.1649,-0.1677,-0.1711,-0.1747,-0.1777,-0.1802,-0.1861,-0.1847,-0.1894,-0.1903,-0.191,-0.191,-0.1938,-0.1949,-0.1834,-0.1834,-0.1834,0,0,-0.148,-0.1502,-0.1521,-0.1558,-0.1572,-0.1595,-0.1591,-0.1619,-0.1654,-0.1653,-0.1721,-0.1741,-0.1768,-0.1828,-0.1858,-0.1843,-0.1933,-0.1915,-0.1921,-0.1917,-0.1943,-0.1954,-0.1964,-0.1837,-0.1837,-0.1836,0,0,-0.149,-0.1531,-0.1554,-0.1578,-0.1607,-0.1622,-0.1638,-0.1665,-0.1698,-0.1756,-0.1766,-0.1815,-0.1872,-0.19,-0.1921,-0.1994,-0.1971,-0.2006,-0.2053,-0.2081,-0.2091,-0.2099,-0.208,-0.2086,-0.2017,-0.2018,-0.2018,0,-0.1494,-0.153,-0.1562,-0.1586,-0.161,-0.1639,-0.1664,-0.1704,-0.1751,-0.179,-0.1788,-0.1885,-0.1905,-0.1984,-0.2005,-0.2014,-0.2007,-0.2012,-0.2092,-0.2099,-0.2107,-0.2085,-0.2091,-0.2021,-0.2021,-0.202,-0.202,0,-0.1508,-0.155,-0.1564,-0.1614,-0.1648,-0.1676,-0.1725,-0.1779,-0.1822,-0.1857,-0.1948,-0.1979,-0.2035,-0.2055,-0.2052,-0.2125,-0.2094,-0.2093,-0.2063,-0.2122,-0.2096,-0.21,-0.2027,-0.2025,-0.2024,-0.2023,0,0,-0.1484,-0.156,-0.1569,-0.1602,-0.1668,-0.1694,-0.1773,-0.1846,-0.1908,-0.1968,-0.2041,-0.2111,-0.213,-0.2153,-0.2168,-0.2195,-0.2231,-0.2168,-0.2167,-0.2142,-0.2261,-0.2096,-0.2084,-0.2247,-0.2249,-0.225,-0.2216,0,-0.1485,-0.1531,-0.158,-0.1643,-0.1669,-0.1742,-0.1817,-0.1896,-0.1965,-0.2045,-0.2105,-0.2174,-0.217,-0.2203,-0.2234,-0.2231,-0.2249,-0.2237,-0.2213,-0.2211,-0.2052,-0.2086,-0.2255,-0.222,-0.2221,-0.2221,-0.2222,0,-0.1476,-0.1514,-0.1564,-0.1669,-0.1691,-0.1744,-0.1871,-0.1942,-0.2063,-0.2122,-0.2203,-0.2239,-0.2303,-0.2283,-0.232,-0.2313,-0.2292,-0.2281,-0.228,-0.2103,-0.2054,-0.2153,-0.223,-0.2229,-0.2228,-0.2228,-0.2227,0,-0.1423,-0.1509,-0.1553,-0.1583,-0.1699,-0.1759,-0.1835,-0.1963,-0.2038,-0.2165,-0.2216,-0.2305,-0.2338,-0.2354,-0.2331,-0.2333,-0.2337,-0.2338,-0.2169,-0.2156,-0.2286,-0.2278,-0.2358,-0.2358,-0.2358,-0.2358,-0.2358,0,-0.139,-0.1435,-0.1537,-0.1559,-0.1641,-0.1738,-0.1845,-0.1939,-0.207,-0.2146,-0.2246,-0.2291,-0.2357,-0.2366,-0.2347,-0.2253,-0.2353,-0.2168,-0.2142,-0.2312,-0.2308,-0.2288,-0.228,-0.2357,-0.2357,-0.2358,-0.2358,0,-0.1318,-0.1385,-0.1443,-0.1566,-0.1611,-0.1669,-0.1832,-0.1907,-0.2042,-0.2135,-0.2173,-0.2283,-0.2281,-0.2308,-0.2311,-0.2241,-0.2192,-0.2136,-0.2287,-0.2272,-0.1986,-0.1983,-0.1942,-0.1936,-0.1931,-0.1926,-0.1923,0,-0.128,-0.1298,-0.1418,-0.1455,-0.1513,-0.162,-0.1697,-0.1868,-0.1939,-0.2104,-0.2124,-0.2177,-0.2222,-0.2082,-0.2134,-0.2075,-0.2054,-0.2014,-0.2024,-0.1967,-0.1947,-0.1951,-0.1955,-0.1915,-0.1913,-0.1912,-0.1911,0,-0.12,-0.1252,-0.1296,-0.1363,-0.1441,-0.153,-0.1645,-0.1691,-0.1874,-0.2003,-0.2012,-0.2004,-0.1986,-0.1967,-0.1924,-0.1894,-0.2037,-0.1961,-0.1971,-0.198,-0.1934,-0.192,-0.1929,-0.1893,-0.1896,-0.1897,-0.1898,0,-0.1139,-0.1148,-0.1204,-0.1253,-0.1345,-0.1403,-0.1494,-0.1569,-0.1658,-0.1844,-0.183,-0.1886,-0.1963,-0.1871,-0.1841,-0.1783,-0.176,-0.171,-0.1734,-0.1754,-0.1707,-0.1622,-0.1455,0,0,0,0,0,-0.1064,-0.1057,-0.1093,-0.1145,-0.1231,-0.128,-0.1439,-0.1539,-0.171,-0.1663,-0.1747,-0.1724,-0.1676,-0.1705,-0.1601,-0.1753,-0.1768,-0.1627,-0.1725,-0.1795,-0.1815,-0.1777,0,0,0,0,0,0,-0.1012,-0.1037,-0.1042,-0.1032,-0.1047,-0.1137,-0.1233,-0.1359,-0.1353,-0.1514,-0.1489,-0.1592,-0.1562,-0.1679,-0.1548,-0.1556,-0.1579,-0.1665,-0.166,-0.1783,-0.1802,-0.1818,-0.1786,0,0,0,0,0]},{"header":{"parameterUnit":"m.s-1","parameterCategory":2,"la1":30.2991,"la2":30.254,"lo1":-89.0895,"lo2":-89.0444,"dy":0.0017,"dx":0.0017,"nx":28,"ny":28,"refTime":"2024-04-13T09:00:00:Z","depth":"4","parameterNumber":3,"parameterNumberName":"V-component_of_CURRENTS"},"data":[0,0,0,0,0,0,0,0,0,0,0,0,0,0,0,0,0,0,0,0,0,0,0,0,0,0,0,0,0,0,0,0,0,0,0,0,0,0,0,0,0,0,0,0,0,0,0,0,0,0,0,0,0,0,0,0,0,0,-0.0093,-0.0093,0,-0.0055,-0.0055,-0.0054,-0.0024,-0.0023,-0.0023,-0.0023,0.0043,0.0044,0.0046,0,0,0,0,0,0,0,0,0,0,0,0,0,-0.0106,-0.0106,-0.0093,-0.0093,-0.0092,-0.0055,-0.0055,-0.0054,-0.0024,-0.0023,-0.0023,-0.0023,0.0043,0.0044,0.0046,0,0,0,0,0,0,0,0,0,0,0,0,0,-0.0087,-0.0106,-0.0093,-0.0073,-0.007,-0.0055,-0.0055,-0.0054,-0.0024,-0.0023,-0.0023,-0.0022,0.0042,0.0044,0.0046,0.0051,0,0,0.0053,0.0054,0,0,0,0,0,0,0,0,-0.0089,-0.0087,-0.0076,-0.0074,-0.0071,-0.0044,-0.0035,-0.0018,-0.0024,-0.0041,-0.0023,-0.0022,0.0016,0.002,0.0026,0.0054,0.0057,0.0053,0.0054,0.0055,0.0056,0,0,0,0,0,0,0,-0.009,-0.0088,-0.0078,-0.0076,-0.0073,-0.0054,-0.0051,-0.0032,-0.0015,-0.004,-0.0037,-0.0034,0.0018,0.0024,0.0028,0.0058,0.0053,0.0055,0.0056,0.0057,0.0098,0.0098,0,0,0,0,0,0,-0.0097,-0.009,-0.0079,-0.0077,-0.0079,-0.0054,-0.0051,-0.0053,-0.0016,-0.001,-0.0034,-0.0032,0.002,0.0026,0.0031,0.004,0.0055,0.0057,0.0059,0.0098,0.0098,0.0098,0,0,0,0,0,0,-0.0098,-0.0097,-0.0081,-0.0082,-0.0079,-0.0055,-0.0057,-0.0052,-0.0045,-0.0012,-0.0005,-0.0031,0.0021,0.0028,0.0047,0.0043,0.0058,0.006,0.0099,0.0098,0.0098,0.0059,0,0,0,0,0,0,-0.0099,-0.0098,-0.0105,-0.0083,-0.0079,-0.0077,-0.0057,-0.0052,-0.0043,-0.0041,-0.0007,-0.0,0.0022,0.0043,0.0049,0.0047,0.0062,0.0099,0.0099,0.0098,0.006,0.0057,0.0054,0,0,0,0,0,-0.0099,-0.0113,-0.0106,-0.0104,-0.0089,-0.0077,-0.0074,-0.0055,-0.0044,-0.0045,-0.002,-0.0001,0.0045,0.0045,0.0052,0.005,0.0099,0.0099,0.0098,0.0062,0.0058,0.0054,0,0,0,0,0,0,-0.0122,-0.011,-0.0102,-0.0111,-0.0097,-0.0072,-0.0075,-0.0058,-0.004,-0.0038,-0.0003,0.0005,0.0018,0.0039,0.0039,0.006,0.0075,0.0075,0.0044,0.0041,0.0038,0.0031,0.0064,0,0,0,0,0,-0.0131,-0.0139,-0.0119,-0.0127,-0.0122,-0.0098,-0.0092,-0.0078,-0.0058,-0.005,-0.0025,0.0001,0.002,0.0035,0.0052,0.0067,0.0102,0.007,0.0067,0.0064,0.0062,0.0119,0.0121,0.0096,0.0096,0.0096,0,0,-0.0142,-0.0138,-0.0141,-0.0133,-0.0122,-0.0125,-0.0094,-0.0089,-0.0088,-0.0046,-0.0038,-0.0012,0.002,0.0033,0.0042,0.0052,0.0088,0.0063,0.0061,0.0061,0.0119,0.0122,0.0124,0.0096,0.0096,0.0096,0,0,-0.017,-0.0164,-0.018,-0.0172,-0.016,-0.0147,-0.0147,-0.0123,-0.0109,-0.0097,-0.0067,-0.0038,-0.0014,0.0016,0.0033,0.0025,0.0066,0.0026,0.0011,0.0066,0.0069,0.0072,0.0113,0.012,0.003,0.003,0.003,0,-0.0184,-0.0203,-0.0182,-0.0193,-0.0194,-0.016,-0.0175,-0.0156,-0.0128,-0.0113,-0.0103,-0.0048,-0.002,0.001,0.0006,0.002,0.0052,0.0022,0.0063,0.0067,0.0071,0.0112,0.0121,0.0028,0.0028,0.0028,0.0028,0,-0.0221,-0.0236,-0.0245,-0.0251,-0.0246,-0.0255,-0.0227,-0.0218,-0.0197,-0.0168,-0.0135,-0.0089,-0.0053,-0.0039,-0.002,0.0018,0.0031,0.0049,0.0073,0.0071,0.0115,0.0124,0.0025,0.0026,0.0026,0.0027,0,0,-0.0254,-0.027,-0.0274,-0.029,-0.028,-0.0283,-0.0279,-0.0261,-0.0251,-0.0211,-0.0189,-0.0142,-0.0102,-0.0081,-0.0042,0.0009,0.0061,0.0035,0.0039,0.0076,0.0175,0.0166,0.0176,0.0088,0.0089,0.009,0.0193,0,-0.0292,-0.0335,-0.0327,-0.0364,-0.0384,-0.0355,-0.0356,-0.033,-0.0291,-0.0258,-0.019,-0.0158,-0.0121,-0.0102,-0.0045,0.0033,0.0085,0.0031,0.0171,0.0175,0.0168,0.0186,0.0095,0.02,0.0202,0.0204,0.0205,0,-0.0331,-0.0358,-0.0405,-0.0428,-0.0433,-0.0447,-0.0436,-0.0428,-0.0363,-0.0329,-0.0267,-0.021,-0.0135,-0.0105,0.0038,0.0002,0.008,0.0146,0.0152,0.0165,0.0184,0.0205,0.0222,0.0221,0.022,0.0219,0.0217,0,-0.0373,-0.0411,-0.0457,-0.0464,-0.0481,-0.0494,-0.0497,-0.045,-0.0439,-0.0365,-0.0338,-0.0238,-0.0189,-0.0074,0.0057,0.0051,0.0218,0.023,0.0299,0.0299,0.0293,0.0289,0.0334,0.0334,0.0333,0.0333,0.0333,0,-0.0417,-0.0453,-0.0484,-0.0509,-0.0561,-0.0544,-0.0566,-0.0544,-0.0499,-0.0473,-0.0376,-0.0324,-0.0177,-0.0064,0.0053,0.0203,0.022,0.03,0.0329,0.0272,0.0265,0.03,0.0294,0.0337,0.0336,0.0335,0.0335,0,-0.0453,-0.0475,-0.0532,-0.0568,-0.0585,-0.0618,-0.0634,-0.0634,-0.058,-0.054,-0.0522,-0.0387,-0.0233,-0.0082,0.0109,0.0193,0.0339,0.0388,0.0309,0.0331,0.0384,0.0375,0.0475,0.0476,0.0476,0.0477,0.0477,0,-0.0476,-0.0509,-0.0581,-0.0623,-0.0647,-0.0688,-0.0713,-0.0686,-0.0673,-0.0566,-0.0547,-0.0399,-0.0293,-0.0021,0.0128,0.0346,0.0374,0.0438,0.0417,0.0382,0.0401,0.0391,0.0382,0.0478,0.0478,0.0478,0.0478,0,-0.0516,-0.0544,-0.059,-0.068,-0.073,-0.0777,-0.08,-0.0797,-0.0737,-0.0692,-0.0541,-0.0384,-0.021,-0.0012,0.0151,0.0308,0.039,0.0445,0.0444,0.0425,0.0387,0.0402,0.0393,0.048,0.048,0.048,0.048,0,-0.054,-0.0584,-0.065,-0.0726,-0.0796,-0.0837,-0.0846,-0.0806,-0.078,-0.0646,-0.0596,-0.0381,-0.026,-0.003,0.0127,0.0271,0.0305,0.0343,0.0349,0.0349,0.0275,0.0206,0.0275,0,0,0,0,0,-0.0555,-0.061,-0.0689,-0.0771,-0.0841,-0.0878,-0.0891,-0.0877,-0.0813,-0.071,-0.0646,-0.0468,-0.0198,-0.0077,0.0068,0.0107,0.0299,0.0277,0.0337,0.0491,0.0489,0.0423,0,0,0,0,0,0,-0.0566,-0.0644,-0.069,-0.0791,-0.085,-0.0916,-0.0923,-0.0882,-0.081,-0.0717,-0.0571,-0.0454,-0.0201,-0.0285,0.0063,0.0108,0.0163,0.0411,0.0414,0.0492,0.049,0.0488,0.042,0,0,0,0,0]}]]